Stuttgart Echterdingen, Germany

9:49 AM CEST on June 24, 2017 (GMT +0200)
Stuttgart

Weather History for EDDS - October, 2012

Change the Weather History Date:

Friday, October 5, 2012

  Actual Average Record
Temperature  
Mean Temperature 56 °F -  
Max Temperature 70 °F 60 °F 80 °F (2004)
Min Temperature 43 °F 45 °F 35 °F (2008)
Degree Days  
Heating Degree Days 8    
Growing Degree Days 6 (Base 50)    
Moisture  
Dew Point 48 °F    
Average Humidity 76    
Maximum Humidity 100    
Minimum Humidity 40    
Precipitation  
Precipitation 0.00 in - - ()
Sea Level Pressure  
Sea Level Pressure 30.04 in    
Wind  
Wind Speed 4 mph ()    
Max Wind Speed 13 mph    
Max Gust Speed 28 mph    
Visibility 5.8 miles    
Events Fog , Rain    
Averages and records for this station are not official NWS values.
T = Trace of Precipitation, MM = Missing Value Source: Averaged Metar Reports

Daily Weather History Graph

Daily Weather History Graph

Search for Another Location

Airport or City:

Trip Planner

Search our weather history database for the weather conditions in past years. The results will help you decide how hot, cold, wet, or windy it might be!

Date:

Astronomy

Oct. 05, 2012 Rise Set
Actual Time 7:28 AM CEST 6:53 PM CEST
Civil Twilight 6:57 AM CEST 7:24 PM CEST
Nautical Twilight 6:20 AM CEST 8:00 PM CEST
Astronomical Twilight 5:43 AM CEST 8:37 PM CEST
Moon 9:39 PM CEST (10/5) 12:46 PM CEST (10/5)
Length of Visible Light 12h 27m
Length of Day
11h 24m
Waning Gibbous, 76% of the Moon is Illuminated
Oct 5
Waning Gibbous
Oct 8
Last Quarter
Oct 15
New
Oct 22
First Quarter
Oct 29
Full

Hourly Weather History & Observations

Time (CEST) Temp. Windchill Dew Point Humidity Pressure Visibility Wind Dir Wind Speed Gust Speed Precip Events Conditions
12:00 AM 47 °F - 45 °F 90% 30.14 in 37 mi West 2.2 mph - -   Partly Cloudy
12:20 AM 48.2 °F - 46.4 °F 93% 30.09 in - Variable 2.3 mph - N/A   Clear
12:50 AM 48.2 °F - 46.4 °F 93% 30.09 in 6.2 mi Variable 1.2 mph - N/A   Scattered Clouds
1:00 AM 49 °F - 46 °F 87% 30.12 in 37 mi NW 2.2 mph - -   Partly Cloudy
1:20 AM 44.6 °F 43.1 °F 42.8 °F 93% 30.09 in 6.2 mi NE 3.5 mph - N/A   Mostly Cloudy
1:50 AM 44.6 °F - 42.8 °F 93% 30.09 in - ENE 2.3 mph - N/A   Clear
2:00 AM 45 °F - 43 °F 91% 30.13 in 34 mi ENE 2.2 mph - -   Scattered Clouds
2:20 AM 44.6 °F - 42.8 °F 93% 30.09 in 6.2 mi Variable 2.3 mph - N/A   Unknown
2:50 AM 44.6 °F - 42.8 °F 93% 30.09 in 6.2 mi Variable 1.2 mph - N/A   Unknown
3:00 AM 44 °F - 43 °F 96% 30.12 in 1 mi ESE 2.2 mph - - Fog Light Fog
3:20 AM 44.6 °F - 42.8 °F 93% 30.06 in 6.2 mi NNE 1.2 mph - N/A   Unknown
3:50 AM 42.8 °F - 41.0 °F 93% 30.06 in 6.2 mi Variable 2.3 mph - N/A   Unknown
4:00 AM 43 °F - 42 °F 97% 30.11 in 1 mi North 2.2 mph - - Fog Light Fog
4:20 AM 42.8 °F - 41.0 °F 93% 30.06 in 6.2 mi NE 1.2 mph - N/A   Unknown
4:50 AM 44.6 °F - 42.8 °F 93% 30.06 in 6.2 mi Variable 1.2 mph - N/A   Unknown
5:20 AM 44.6 °F - 42.8 °F 93% 30.04 in - Variable 1.2 mph - N/A   Clear
5:50 AM 44.6 °F - 42.8 °F 93% 30.04 in - Variable 1.2 mph - N/A   Clear
6:00 AM 45 °F - 44 °F 97% 30.08 in 31 mi ENE 2.2 mph - - Rain Light Rain
6:20 AM 44.6 °F - 42.8 °F 93% 30.04 in 6.2 mi East 2.3 mph - N/A   Mostly Cloudy
6:50 AM 44.6 °F - 42.8 °F 93% 30.04 in - Variable 1.2 mph - N/A   Clear
7:00 AM 44 °F - 44 °F 98% 30.06 in 31 mi NE 2.2 mph - - Rain Light Rain
7:20 AM 44.6 °F - 42.8 °F 93% 30.04 in - SSW 2.3 mph - N/A   Clear
7:50 AM 46.4 °F - 44.6 °F 93% 30.04 in - Variable 1.2 mph - N/A   Clear
8:00 AM 46 °F - 46 °F 98% 30.05 in 31 mi West 2.2 mph - -   Partly Cloudy
8:20 AM 46.4 °F 45.2 °F 44.6 °F 93% 30.04 in 6.2 mi WSW 3.5 mph - N/A   Mostly Cloudy
8:50 AM 50.0 °F - 48.2 °F 94% 30.04 in 6.2 mi WSW 1.2 mph - N/A   Mostly Cloudy
9:00 AM 49 °F - 49 °F 100% 30.05 in 31 mi WSW 2.2 mph - -   Scattered Clouds
9:20 AM 53.6 °F - 50.0 °F 88% 30.04 in 6.2 mi SSE 1.2 mph - N/A   Mostly Cloudy
9:50 AM 57.2 °F - 50.0 °F 77% 30.04 in - ESE 2.3 mph - N/A   Clear
10:00 AM 56 °F - 51 °F 77% 30.03 in 31 mi East 2.2 mph - -   Scattered Clouds
10:20 AM 59.0 °F - 51.8 °F 77% 30.04 in - ESE 2.3 mph - N/A   Clear
10:50 AM 60.8 °F - 51.8 °F 72% 30.04 in 6.2 mi SSW 4.6 mph - N/A   Mostly Cloudy
11:20 AM 62.6 °F - 53.6 °F 72% 30.04 in 6.2 mi SSW 9.2 mph - N/A   Mostly Cloudy
11:50 AM 62.6 °F - 51.8 °F 68% 30.04 in 6.2 mi SSW 8.1 mph - N/A   Mostly Cloudy
12:00 PM 63 °F - 53 °F 62% 30.01 in 44 mi SSW 6.7 mph - -   Scattered Clouds
12:20 PM 64.4 °F - 55.4 °F 73% 30.04 in 6.2 mi SW 6.9 mph - N/A   Mostly Cloudy
12:50 PM 66.2 °F - 53.6 °F 64% 30.01 in 6.2 mi SW 11.5 mph - N/A   Mostly Cloudy
1:00 PM 66 °F - 54 °F 55% 29.99 in 44 mi SW 11.2 mph - -   Scattered Clouds
1:20 PM 68.0 °F - 53.6 °F 60% 30.01 in 6.2 mi SW 12.7 mph - N/A   Mostly Cloudy
1:50 PM 68.0 °F - 51.8 °F 56% 30.01 in 6.2 mi SSW 10.4 mph 24.2 mph N/A   Scattered Clouds
2:00 PM 68 °F - 53 °F 48% 29.96 in 44 mi SSW 11.2 mph - -   Scattered Clouds
2:20 PM 68.0 °F - 50.0 °F 52% 29.98 in 6.2 mi SSW 12.7 mph 24.2 mph N/A   Partly Cloudy
2:50 PM 69.8 °F - 51.8 °F 53% 29.98 in 6.2 mi SW 10.4 mph 23.0 mph N/A   Partly Cloudy
3:20 PM 69.8 °F - 50.0 °F 49% 29.98 in 6.2 mi SW 11.5 mph 27.6 mph N/A   Partly Cloudy
3:50 PM 69.8 °F - 50.0 °F 49% 29.98 in 6.2 mi SW 11.5 mph - N/A   Partly Cloudy
4:00 PM 70 °F - 51 °F 40% 29.95 in 44 mi SW 11.2 mph - -   Scattered Clouds
4:20 PM 69.8 °F - 50.0 °F 49% 29.98 in 6.2 mi SW 9.2 mph - N/A   Partly Cloudy
4:50 PM 69.8 °F - 50.0 °F 49% 29.98 in 6.2 mi WSW 9.2 mph - N/A   Partly Cloudy
5:20 PM 68.0 °F - 50.0 °F 52% 30.01 in - SW 11.5 mph - N/A   Clear
5:50 PM 66.2 °F - 50.0 °F 56% 29.98 in - SW 6.9 mph 18.4 mph N/A   Clear
6:00 PM 67 °F - 51 °F 47% 29.96 in 44 mi SW 6.7 mph - -   Scattered Clouds
6:20 PM 66.2 °F - 50.0 °F 56% 30.01 in - SSW 5.8 mph - N/A   Clear
6:50 PM 64.4 °F - 50.0 °F 59% 30.01 in - SSW 5.8 mph - N/A   Clear
7:00 PM 64 °F - 52 °F 56% 29.98 in 44 mi South 4.5 mph - -   Scattered Clouds
7:20 PM 62.6 °F - 51.8 °F 68% 30.01 in - SSW 5.8 mph - N/A   Clear
7:50 PM 62.6 °F - 51.8 °F 68% 30.01 in - SSW 5.8 mph - N/A   Clear
8:00 PM 62 °F - 52 °F 61% 29.99 in 37 mi SSW 6.7 mph - -   Scattered Clouds
8:20 PM 62.6 °F - 50.0 °F 63% 30.01 in - WSW 4.6 mph - N/A   Clear
8:50 PM 59.0 °F - 50.0 °F 72% 30.04 in - WNW 5.8 mph - N/A   Clear
9:00 PM 59 °F - 51 °F 69% 30.01 in 37 mi WNW 4.5 mph - -   Scattered Clouds
9:20 PM 59.0 °F - 50.0 °F 72% 30.04 in - Variable 1.2 mph - N/A   Clear
9:50 PM 55.4 °F - 50.0 °F 82% 30.04 in - SSE 3.5 mph - N/A   Clear
10:00 PM 56 °F - 51 °F 77% 30.03 in 37 mi SSE 4.5 mph - -   Clear
10:20 PM 59.0 °F - 51.8 °F 77% 30.04 in - South 3.5 mph - N/A   Clear
10:50 PM 55.4 °F - 48.2 °F 77% 30.04 in - South 2.3 mph - N/A   Clear
11:20 PM 55.4 °F - 48.2 °F 77% 30.04 in - ENE 1.2 mph - N/A   Clear
11:50 PM 55.4 °F - 48.2 °F 77% 30.06 in - SSE 3.5 mph - N/A   Clear